Content
SEND FEEDBACK

Daily
Averages
Monthly
Summary
United States of America

MARSHFIELD, WISCONSIN


Home > North America > United States > Wisconsin
Elevation: 384 meters     Latitude: 44 37N     Longitude: 090 10W

WEATHER
 
SELECT A DAY
Number of Records: 200,313;   Date Range: 7/1/96 - 9/18/14
 
SHARE

PRINT THIS DATA

[ ← Previous Day ]
WEATHER ALMANAC - 13 FEBRUARY, 2013
[ Next Day → ]
[ °F ]   °C
Weather ElementAverageHighLow
Temperature-2.9 °C1.7 °C (3:54 pm)-7 °C (3:46 am)
Dewpoint-5.4 °C-2.2 °C (11:54 pm)-8 °C (4:27 am)
Humidity83.4 %100 % (3:46 am)64 % (3:54 pm)
Barometer1006.1 hPa1009.1 hPa (1:54 am)1001.7 hPa (11:26 pm)
Wind Speed8.4 km/h13 km/h (10:54 am)
Weather ElementAverage
Visibility10.9 km
Wind DirectionWSW (230.8 °)

Weather ElementTotal
Precipitation---
Heating Degree Days21 (Base 18.3)
Averaged from 26 records on 13 February, 2013
WEATHER CONDITIONS BREAKOUT
WIND DIRECTION BREAKOUT
WEATHER BY HOUR - 13 FEBRUARY, 2013
[ °F ]   °C
Local TimeTemperatureDewpointHumidityBarometerVisibilityWind DirectionWind SpeedGust SpeedPrecipitationEventsConditions
1:54 AM-6.1 °C-7.2 °C92 %1009.1 hPa8 kmWSW (250°)7.4 km/hPartly Cloudy
2:54 AM-6.1 °C-7.2 °C92 %1008.5 hPa6.4 kmSW (230°)9.3 km/hClear
3:46 AM-7 °C-7 °C100 %1006.4 hPa6.4 kmWest (260°)5.6 km/hMostly Cloudy
3:54 AM-6.7 °C-7.2 °C96 %1008.5 hPa6.4 kmWSW (240°)7.4 km/hMostly Cloudy
4:27 AM-7 °C-8 °C93 %1006.1 hPa6.4 kmWSW (250°)9.3 km/hOvercast
4:54 AM-6.7 °C-7.8 °C92 %1007.8 hPa8 kmWSW (240°)7.4 km/hOvercast
5:54 AM-6.7 °C-7.8 °C92 %1007.8 hPa8 kmWSW (240°)9.3 km/hOvercast
6:54 AM-6.1 °C-7.2 °C92 %1007.5 hPa9.7 kmWest (260°)7.4 km/hOvercast
7:54 AM-5.6 °C-7.2 °C89 %1007.5 hPa8 kmWest (270°)7.4 km/hOvercast
8:54 AM-5.6 °C-6.7 °C92 %1007.1 hPa9.7 kmWest (260°)11.1 km/hOvercast
9:54 AM-4.4 °C-6.7 °C84 %1006.8 hPa11.3 kmWest (280°)11.1 km/hOvercast
10:54 AM-3.9 °C-6.1 °C85 %1006.8 hPa11.3 kmWNW (290°)13 km/hOvercast
11:54 AM-2.8 °C-6.1 °C78 %1006.4 hPa14.5 kmWSW (250°)11.1 km/hPartly Cloudy
12:54 PM-1.1 °C-5 °C75 %1005.8 hPa16.1 kmWest (260°)9.3 km/hScattered Clouds
1:54 PM0 °C-5 °C69 %1005.8 hPa16.1 kmWest (260°)11.1 km/hOvercast
2:54 PM1.1 °C-4.4 °C67 %1005.4 hPa16.1 kmWNW (290°)9.3 km/hOvercast
3:54 PM1.7 °C-4.4 °C64 %1005.1 hPa16.1 kmWSW (240°)11.1 km/hOvercast
4:54 PM1.1 °C-4.4 °C67 %1005.1 hPa16.1 kmSW (230°)7.4 km/hOvercast
5:54 PM0.6 °C-4.4 °C70 %1005.1 hPa16.1 kmWSW (240°)5.6 km/hOvercast
6:54 PM0.6 °C-4.4 °C70 %1005.4 hPa16.1 kmWSW (240°)7.4 km/hOvercast
7:54 PM0.6 °C-4.4 °C70 %1005.1 hPa16.1 kmSW (230°)5.6 km/hOvercast
8:54 PM-0.6 °C-2.8 °C85 %1005.1 hPa8 kmSW (230°)7.4 km/h0 mmSnowLight Snow
9:54 PM-1.1 °C-2.8 °C88 %1004.1 hPa16.1 kmCalm0 mmOvercast
10:54 PM-1.1 °C-2.8 °C88 %1003.7 hPa8 kmSSE (150°)5.6 km/h0 mmSnowLight Snow
11:26 PM-1 °C-3 °C86 %1001.7 hPa3.2 kmSSE (160°)9.3 km/h0 mmSnowLight Snow
11:54 PM-1.1 °C-2.2 °C92 %1003 hPa4 kmSSE (150°)9.3 km/h0 mmSnowLight Snow
Hourly data recorded from KMFI, located 0 kilometers away from Marshfield, Wisconsin







STORIES FROM OUR PARTNERS